CZ-4C R/B, 43278

Orbit data source: Space-Track

CZ-4C R/B, 43278 is space debris in LEO originally from a launch on Tue, 10 Apr 2018 UTC launched from the Jiuquan Satellite Launch Center, China (JSC). Debris objects in space refer to the collection of defunct objects orbiting the Earth. Examples of debris include non-operational satellites, rocket bodies, and fragments generated from explosions, collisions, or faulty payload assembly.

Loading next visibility...
Identifier
43278, 2018-034D
Orbit
LEO
Country
Flag of CNCN / PRC
Related business
Manufacturer
SAST
Mission
Spacecraft
Bus & Motor
CZ-4 STAGE 3, Unknown motor
Mass
~1,000 kg wet, ~1,000 kg dry
Launch date (UTC)
2018-04-10 (8 years ago)
Launch vehicle
Unknown
Launch site
Jiuquan Satellite Launch Center, China (JSC)
Object type
Payload
Rocket body
Debris
Shape & HBR
Cyl, 1.4 m
Radar Cross Section
7.676 m², Large (>1 m²)

Expand to show TLE details & history
Last TLE update: 8 hours ago

TLE from 8 hours ago
0 CZ-4C R/B
1 43278U 18034D   25308.48569904 -.00000018  00000-0  65059-4 0  9992
2 43278  63.4297 122.2838 0362004 358.6221   1.3783 13.60916599376260
Epoch: 2025-11-04T11:39Z
TLE epoch observation values (Epoch: 2025-11-04T11:39:24.397Z)
Latitude
0.00006°
Longitude
-96.53987°
Altitude
765.944 km
Speed
7.606 km/s
True Right ascension
08h 09m 08s
True Declination
0° 00' 00"
Sunlit
Object was in daylight at epoch
Visualization orbit readout
Latitude
Unknown
Longitude
Unknown
Altitude
Unknown
Speed
Unknown
Apparent Right ascension
Unknown
Apparent Declination
Unknown
Sunlit
N/A
Visualization observer readout
Local Sidereal Time
15:39:46
Azimuth
Unknown
Elevation
Unknown
Doppler factor
Unknown
Orbital elements
Apogee altitude
1,299.397 km
Perigee altitude
762.957 km
Semi-major axis
7,409.314 km
Eccentricity
0.0362
Inclination
63.4297°
RAAN
122.2838°
Arg. of periapsis
358.6221°
True anomaly
1.4828°
Mean anomaly
1.3783°
Eccentric anomaly
1.43006°
Mean motion
3.40311 °/min
Orbital period
105.79 mins
BSTAR
0.000065059
Loading maneuver chart data...
Computing Atmospheric mass density...
Loading historical data...
Loading historical data...
Loading historical data...
Loading historical data...
Loading historical data...
Loading historical data...
Loading historical data...

Documentation

Showing up to 5 results
|